Location: Bagnara
(41.0500°N, 14.7833°E)
Time: 09:40:19
(UTC+00:00)

FALCON 9 DEB - Pass Details

Date: 20 June 2021
Orbit: 363 x 377 km, 53.0° (Epoch: 03 August)

Event Time Altitude Azimuth Distance (km) Brightness Sun altitude
Rises 02:32:26 0° 309° (NW) 2,269 6.7 -9.2°
Reaches altitude 10° 02:34:31 10° 311° (NW) 1,409 5.6 -8.9°
Maximum altitude 02:37:40 78° 38° (NE) 395 3.0 -8.5°
Drops below altitude 10° 02:40:46 10° 125° (SE) 1,391 5.9 -8.0°
Sets 02:42:48 0° 127° (SE) 2,236 6.9 -7.7°
